| time (UTC) | temp F | wind direction | speed knots | gust knots | rain 1hr in | rain 24hr in | rain mn in | humidity % | barometer mb |
| 20260831084037 | 85 | 30 | 8.7 | 16.5 | 0.00 | 0.00 | 0.00 | 44 | 1007.1 |
| 20260831083537 | 85 | 28 | 8.7 | 16.5 | 0.00 | 0.00 | 0.00 | 43 | 1007.1 |
| 20260831083045 | 86 | 88 | 7.0 | 13.0 | 0.00 | 0.00 | 0.00 | 41 | 1006.9 |
| 20260831082537 | 87 | 40 | 9.6 | 13.0 | 0.00 | 0.00 | 0.00 | 40 | 1006.9 |
| 20260831082037 | 86 | 57 | 7.0 | 13.0 | 0.00 | 0.00 | 0.00 | 40 | 1006.8 |
| 20260831081537 | 86 | 26 | 5.2 | 12.2 | 0.00 | 0.00 | 0.00 | 41 | 1006.8 |
| 20260831081037 | 87 | 56 | 8.7 | 12.2 | 0.00 | 0.00 | 0.00 | 41 | 1006.8 |
| 20260831080535 | 87 | 40 | 7.0 | 14.8 | 0.00 | 0.00 | 0.00 | 41 | 1006.8 |
| 20260831080043 | 87 | 53 | 6.1 | 14.8 | 0.00 | 0.00 | 0.00 | 41 | 1006.9 |
| 20260831075535 | 86 | 35 | 6.1 | 15.6 | 0.00 | 0.00 | 0.00 | 41 | 1007.0 |
| 20260831075033 | 86 | 360 | 9.6 | 18.2 | 0.00 | 0.00 | 0.00 | 42 | 1007.1 |
| 20260831074543 | 86 | 40 | 9.6 | 16.5 | 0.00 | 0.00 | 0.00 | 43 | 1007.1 |
| 20260831074032 | 86 | 27 | 7.8 | 18.2 | 0.00 | 0.00 | 0.00 | 45 | 1007.2 |
| 20260831073531 | 85 | 63 | 8.7 | 18.2 | 0.00 | 0.00 | 0.00 | 45 | 1007.2 |
| 20260831073031 | 85 | 5 | 12.2 | 17.4 | 0.00 | 0.00 | 0.00 | 46 | 1007.2 |
| 20260831072529 | 85 | 5 | 9.6 | 19.1 | 0.00 | 0.00 | 0.00 | 47 | 1007.1 |
| 20260831072028 | 85 | 29 | 9.6 | 19.1 | 0.00 | 0.00 | 0.00 | 48 | 1007.2 |
| 20260831071536 | 85 | 24 | 9.6 | 16.5 | 0.00 | 0.00 | 0.00 | 48 | 1007.3 |
| 20260831071027 | 85 | 31 | 7.8 | 16.5 | 0.00 | 0.00 | 0.00 | 47 | 1007.3 |
| 20260831070525 | 86 | 59 | 8.7 | 14.8 | 0.00 | 0.00 | 0.00 | 47 | 1007.3 |
| 20260831070029 | 86 | 333 | 7.0 | 13.0 | 0.00 | 0.00 | 0.00 | 47 | 1007.2 |
| 20260831065526 | 86 | 360 | 6.1 | 15.6 | 0.00 | 0.00 | 0.00 | 46 | 1007.4 |
| 20260831065025 | 87 | 337 | 6.1 | 16.5 | 0.00 | 0.00 | 0.00 | 45 | 1007.5 |
| 20260831064527 | 87 | 355 | 9.6 | 16.5 | 0.00 | 0.00 | 0.00 | 46 | 1007.3 |
| 20260831064024 | 86 | 5 | 9.6 | 14.8 | 0.00 | 0.00 | 0.00 | 44 | 1007.4 |
| 20260831063523 | 86 | 360 | 7.0 | 16.5 | 0.00 | 0.00 | 0.00 | 46 | 1007.4 |
| 20260831063023 | 85 | 328 | 9.6 | 16.5 | 0.00 | 0.00 | 0.00 | 48 | 1007.5 |
| 20260831062524 | 84 | 325 | 8.7 | 16.5 | 0.00 | 0.00 | 0.00 | 51 | 1007.6 |
| 20260831062022 | 83 | 333 | 9.6 | 16.5 | 0.00 | 0.00 | 0.00 | 53 | 1007.7 |
| 20260831061521 | 83 | 5 | 7.0 | 16.5 | 0.00 | 0.00 | 0.00 | 55 | 1007.8 |
| 20260831061021 | 84 | 348 | 6.1 | 13.0 | 0.00 | 0.00 | 0.00 | 57 | 1007.9 |
| 20260831060518 | 85 | 13 | 5.2 | 10.4 | 0.00 | 0.00 | 0.00 | 54 | 1007.8 |
| 20260831060018 | 86 | 350 | 6.1 | 10.4 | 0.00 | 0.00 | 0.00 | 52 | 1008.0 |
| 20260831055518 | 86 | 338 | 4.3 | 10.4 | 0.00 | 0.00 | 0.00 | 50 | 1008.2 |
| 20260831055018 | 86 | 343 | 3.5 | 10.4 | 0.00 | 0.00 | 0.00 | 50 | 1008.4 |
| 20260831054521 | 86 | 326 | 1.7 | 7.0 | 0.00 | 0.00 | 0.00 | 50 | 1008.6 |
| 20260831054018 | 85 | 344 | 4.3 | 10.4 | 0.00 | 0.00 | 0.00 | 50 | 1008.7 |
| 20260831053519 | 85 | 17 | 4.3 | 11.3 | 0.00 | 0.00 | 0.00 | 51 | 1008.7 |
| 20260831053018 | 85 | 349 | 4.3 | 11.3 | 0.00 | 0.00 | 0.00 | 52 | 1008.8 |
| 20260831052517 | 85 | 325 | 5.2 | 12.2 | 0.00 | 0.00 | 0.00 | 52 | 1008.8 |
| 20260831052017 | 84 | 341 | 7.0 | 12.2 | 0.00 | 0.00 | 0.00 | 52 | 1008.6 |
| 20260831051526 | 84 | 327 | 6.1 | 9.6 | 0.00 | 0.00 | 0.00 | 54 | 1008.4 |
| 20260831051015 | 86 | 334 | 2.6 | 7.0 | 0.00 | 0.00 | 0.00 | 52 | 1008.4 |
| 20260831050520 | 87 | 51 | 0.0 | 9.6 | 0.00 | 0.00 | 0.00 | 51 | 1008.5 |
| 20260831050015 | 88 | 72 | 1.7 | 8.7 | 0.00 | 0.00 | 0.00 | 47 | 1008.3 |
| 20260831045518 | 89 | 207 | 0.9 | 11.3 | 0.00 | 0.00 | 0.00 | 45 | 1008.0 |
| 20260831045014 | 89 | 213 | 1.7 | 11.3 | 0.00 | 0.00 | 0.00 | 42 | 1007.6 |
| 20260831044517 | 90 | 218 | 3.5 | 11.3 | 0.00 | 0.00 | 0.00 | 43 | 1007.4 |
| 20260831044014 | 90 | 229 | 3.5 | 8.7 | 0.00 | 0.00 | 0.00 | 44 | 1007.0 |
| 20260831043514 | 90 | 233 | 0.9 | 9.6 | 0.00 | 0.00 | 0.00 | 43 | 1006.7 |
| 20260831043014 | 91 | 254 | 2.6 | 13.9 | 0.00 | 0.00 | 0.00 | 42 | 1006.7 |
| 20260831042514 | 92 | 203 | 2.6 | 13.9 | 0.00 | 0.00 | 0.00 | 41 | 1006.7 |
| 20260831042014 | 93 | 209 | 1.7 | 13.0 | 0.00 | 0.00 | 0.00 | 40 | 1006.7 |
| 20260831041516 | 93 | 204 | 2.6 | 8.7 | 0.00 | 0.00 | 0.00 | 39 | 1006.7 |
| 20260831041013 | 94 | 221 | 3.5 | 9.6 | 0.00 | 0.00 | 0.00 | 39 | 1006.2 |
| 20260831040515 | 94 | 153 | 3.5 | 9.6 | 0.00 | 0.00 | 0.00 | 38 | 1006.1 |
| 20260831040021 | 95 | 196 | 3.5 | 13.9 | 0.00 | 0.00 | 0.00 | 37 | 1006.0 |
| 20260831035512 | 97 | 259 | 5.2 | 13.9 | 0.00 | 0.00 | 0.00 | 36 | 1005.8 |
| 20260831035012 | 98 | 225 | 2.6 | 6.1 | 0.00 | 0.00 | 0.00 | 33 | 1005.6 |
| 20260831034512 | 98 | 211 | 0.9 | 4.3 | 0.00 | 0.00 | 0.00 | 33 | 1005.0 |
| 20260831034012 | 98 | 205 | 0.0 | 4.3 | 0.00 | 0.00 | 0.00 | 33 | 1004.8 |
| 20260831033512 | 98 | 273 | 0.9 | 4.3 | 0.00 | 0.00 | 0.00 | 33 | 1004.8 |
| 20260831033012 | 98 | 268 | 0.9 | 7.0 | 0.00 | 0.00 | 0.00 | 33 | 1004.8 |
| 20260831032512 | 98 | 187 | 0.0 | 7.0 | 0.00 | 0.00 | 0.00 | 33 | 1004.8 |
| 20260831032011 | 99 | 310 | 0.0 | 2.6 | 0.00 | 0.00 | 0.00 | 33 | 1005.0 |
| 20260831031511 | 99 | 194 | 0.9 | 3.5 | 0.00 | 0.00 | 0.00 | 33 | 1005.1 |
| 20260831031010 | 99 | 250 | 0.0 | 3.5 | 0.00 | 0.00 | 0.00 | 32 | 1005.1 |
| 20260831030511 | 99 | 228 | 0.0 | 2.6 | 0.00 | 0.00 | 0.00 | 32 | 1005.0 |
| 20260831030010 | 99 | 234 | 0.0 | 2.6 | 0.00 | 0.00 | 0.00 | 32 | 1004.9 |
| 20260831025511 | 99 | 238 | 0.0 | 2.6 | 0.00 | 0.00 | 0.00 | 32 | 1004.6 |
| 20260831025011 | 99 | 243 | 0.0 | 3.5 | 0.00 | 0.00 | 0.00 | 32 | 1004.5 |
| 20260831024510 | 99 | 224 | 0.9 | 2.6 | 0.00 | 0.00 | 0.00 | 31 | 1004.4 |
| 20260831024010 | 99 | 244 | 0.0 | 4.3 | 0.00 | 0.00 | 0.00 | 31 | 1004.4 |
| 20260831023512 | 99 | 230 | 0.9 | 4.3 | 0.00 | 0.00 | 0.00 | 30 | 1004.4 |
| 20260831023009 | 99 | 201 | 0.0 | 3.5 | 0.00 | 0.00 | 0.00 | 30 | 1004.3 |
| 20260831022509 | 100 | 196 | 0.0 | 3.5 | 0.00 | 0.00 | 0.00 | 30 | 1004.3 |
| 20260831022009 | 100 | 197 | 0.0 | 2.6 | 0.00 | 0.00 | 0.00 | 30 | 1004.2 |
| 20260831021509 | 100 | 197 | 0.0 | 4.3 | 0.00 | 0.00 | 0.00 | 29 | 1004.1 |
| 20260831021009 | 100 | 239 | 1.7 | 4.3 | 0.00 | 0.00 | 0.00 | 29 | 1004.0 |
| 20260831020510 | 100 | 234 | 0.9 | 5.2 | 0.00 | 0.00 | 0.00 | 29 | 1003.9 |
| 20260831020009 | 100 | 257 | 0.9 | 5.2 | 0.00 | 0.00 | 0.00 | 29 | 1003.9 |
| 20260831015508 | 100 | 219 | 0.0 | 5.2 | 0.00 | 0.00 | 0.00 | 29 | 1003.8 |
| 20260831015008 | 101 | 223 | 1.7 | 5.2 | 0.00 | 0.00 | 0.00 | 28 | 1003.7 |
| 20260831014508 | 101 | 290 | 0.0 | 4.3 | 0.00 | 0.00 | 0.00 | 28 | 1003.6 |
| 20260831014008 | 101 | 279 | 0.9 | 4.3 | 0.00 | 0.00 | 0.00 | 29 | 1003.6 |
| 20260831013508 | 102 | 167 | 0.9 | 3.5 | 0.00 | 0.00 | 0.00 | 28 | 1003.6 |
| 20260831013009 | 102 | 240 | 0.0 | 3.5 | 0.00 | 0.00 | 0.00 | 28 | 1003.5 |
| 20260831012508 | 102 | 198 | 0.9 | 3.5 | 0.00 | 0.00 | 0.00 | 28 | 1003.4 |
| 20260831012006 | 102 | 254 | 0.9 | 5.2 | 0.00 | 0.00 | 0.00 | 28 | 1003.4 |
| 20260831011514 | 103 | 213 | 1.7 | 5.2 | 0.00 | 0.00 | 0.00 | 27 | 1003.5 |
| 20260831011005 | 103 | 196 | 1.7 | 7.8 | 0.00 | 0.00 | 0.00 | 27 | 1003.6 |
| 20260831010505 | 103 | 255 | 2.6 | 7.8 | 0.00 | 0.00 | 0.00 | 27 | 1003.6 |
| 20260831010005 | 103 | 193 | 0.0 | 5.2 | 0.00 | 0.00 | 0.00 | 27 | 1003.6 |
| 20260831005504 | 103 | 184 | 0.9 | 5.2 | 0.00 | 0.00 | 0.00 | 27 | 1003.7 |
| 20260831005004 | 103 | 202 | 1.7 | 4.3 | 0.00 | 0.00 | 0.00 | 27 | 1003.7 |
| 20260831004504 | 104 | 236 | 0.9 | 6.1 | 0.00 | 0.00 | 0.00 | 28 | 1003.8 |
| 20260831004002 | 104 | 315 | 1.7 | 6.1 | 0.00 | 0.00 | 0.00 | 27 | 1003.8 |
| 20260831003502 | 104 | 313 | 1.7 | 6.1 | 0.00 | 0.00 | 0.00 | 28 | 1003.7 |
| 20260831003003 | 105 | 212 | 0.9 | 4.3 | 0.00 | 0.00 | 0.00 | 28 | 1003.8 |
| 20260831002502 | 104 | 184 | 0.0 | 3.5 | 0.00 | 0.00 | 0.00 | 28 | 1003.8 |
| 20260831002003 | 104 | 186 | 0.9 | 5.2 | 0.00 | 0.00 | 0.00 | 28 | 1003.8 |
| 20260831001504 | 104 | 171 | 0.9 | 6.1 | 0.00 | 0.00 | 0.00 | 28 | 1003.8 |
| 20260831001001 | 104 | 186 | 1.7 | 6.1 | 0.00 | 0.00 | 0.00 | 29 | 1003.9 |
| 20260831000501 | 104 | 286 | 1.7 | 7.8 | 0.00 | 0.00 | 0.00 | 28 | 1003.9 |
| 20260830235559 | 104 | 245 | 1.7 | 4.3 | 0.00 | 0.00 | 0.00 | 29 | 1004.0 |
| 20260830235103 | 104 | 248 | 0.9 | 7.0 | 0.00 | 0.00 | 0.00 | 29 | 1004.1 |
| 20260830234559 | 104 | 321 | 2.6 | 8.7 | 0.00 | 0.00 | 0.00 | 29 | 1004.1 |
| 20260830234059 | 104 | 244 | 4.3 | 8.7 | 0.00 | 0.00 | 0.00 | 28 | 1004.1 |
| 20260830233559 | 105 | 304 | 2.6 | 7.8 | 0.00 | 0.00 | 0.00 | 28 | 1004.1 |
| 20260830233121 | 105 | 273 | 1.7 | 7.0 | 0.00 | 0.00 | 0.00 | 27 | 1004.2 |
| 20260830232558 | 105 | 225 | 1.7 | 6.1 | 0.00 | 0.00 | 0.00 | 27 | 1004.2 |
| 20260830232058 | 106 | 231 | 1.7 | 6.1 | 0.00 | 0.00 | 0.00 | 27 | 1004.3 |
| 20260830231556 | 106 | 190 | 0.9 | 3.5 | 0.00 | 0.00 | 0.00 | 27 | 1004.3 |
| 20260830231101 | 106 | 288 | 0.0 | 3.5 | 0.00 | 0.00 | 0.00 | 27 | 1004.4 |
| 20260830230559 | 105 | 180 | 0.9 | 4.3 | 0.00 | 0.00 | 0.00 | 27 | 1004.6 |
| 20260830230104 | 105 | 193 | 0.9 | 6.1 | 0.00 | 0.00 | 0.00 | 28 | 1004.6 |
| 20260830225555 | 105 | 287 | 1.7 | 6.1 | 0.00 | 0.00 | 0.00 | 27 | 1004.6 |
| 20260830225053 | 105 | 270 | 1.7 | 6.1 | 0.00 | 0.00 | 0.00 | 27 | 1004.7 |
| 20260830224555 | 105 | 290 | 1.7 | 6.1 | 0.00 | 0.00 | 0.00 | 27 | 1004.8 |
| 20260830224050 | 105 | 125 | 1.7 | 7.0 | 0.00 | 0.00 | 0.00 | 27 | 1004.9 |
| 20260830223550 | 104 | 157 | 1.7 | 7.0 | 0.00 | 0.00 | 0.00 | 28 | 1005.0 |
| 20260830223049 | 104 | 244 | 2.6 | 7.0 | 0.00 | 0.00 | 0.00 | 28 | 1005.2 |
| 20260830222549 | 104 | 282 | 3.5 | 7.0 | 0.00 | 0.00 | 0.00 | 28 | 1005.2 |
| 20260830222048 | 105 | 227 | 2.6 | 6.1 | 0.00 | 0.00 | 0.00 | 28 | 1005.4 |
| 20260830221547 | 104 | 190 | 1.7 | 7.0 | 0.00 | 0.00 | 0.00 | 28 | 1005.4 |
| 20260830221048 | 104 | 259 | 0.9 | 7.8 | 0.00 | 0.00 | 0.00 | 29 | 1005.5 |
| 20260830220546 | 104 | 281 | 2.6 | 7.8 | 0.00 | 0.00 | 0.00 | 28 | 1005.6 |
| 20260830220045 | 104 | 275 | 0.0 | 7.8 | 0.00 | 0.00 | 0.00 | 28 | 1005.7 |
| 20260830215543 | 104 | 297 | 1.7 | 7.8 | 0.00 | 0.00 | 0.00 | 28 | 1005.8 |
| 20260830215046 | 104 | 214 | 3.5 | 7.8 | 0.00 | 0.00 | 0.00 | 28 | 1005.9 |
| 20260830214543 | 104 | 231 | 2.6 | 7.0 | 0.00 | 0.00 | 0.00 | 29 | 1006.0 |
| 20260830214043 | 103 | 66 | 0.9 | 4.3 | 0.00 | 0.00 | 0.00 | 30 | 1006.0 |
| 20260830213541 | 104 | 279 | 1.7 | 5.2 | 0.00 | 0.00 | 0.00 | 28 | 1006.2 |
| 20260830213041 | 104 | 254 | 2.6 | 7.0 | 0.00 | 0.00 | 0.00 | 29 | 1006.3 |
| 20260830212540 | 104 | 260 | 2.6 | 7.0 | 0.00 | 0.00 | 0.00 | 29 | 1006.4 |
| 20260830212040 | 105 | 210 | 1.7 | 6.1 | 0.00 | 0.00 | 0.00 | 29 | 1006.4 |
| 20260830211548 | 104 | 175 | 1.7 | 7.0 | 0.00 | 0.00 | 0.00 | 29 | 1006.5 |
| 20260830211040 | 103 | 203 | 1.7 | 5.2 | 0.00 | 0.00 | 0.00 | 30 | 1006.5 |
| 20260830210537 | 103 | 250 | 1.7 | 5.2 | 0.00 | 0.00 | 0.00 | 31 | 1006.6 |
| 20260830210037 | 103 | 315 | 0.9 | 5.2 | 0.00 | 0.00 | 0.00 | 31 | 1006.7 |
| 20260830205540 | 103 | 315 | 0.9 | 5.2 | 0.00 | 0.00 | 0.00 | 31 | 1006.9 |
| 20260830205036 | 103 | 179 | 0.9 | 5.2 | 0.00 | 0.00 | 0.00 | 31 | 1007.0 |
| 20260830204536 | 103 | 215 | 1.7 | 6.1 | 0.00 | 0.00 | 0.00 | 31 | 1007.0 |
| 20260830204036 | 103 | 221 | 1.7 | 6.1 | 0.00 | 0.00 | 0.00 | 31 | 1007.2 |
| 20260830203536 | 103 | 279 | 0.9 | 6.1 | 0.00 | 0.00 | 0.00 | 31 | 1007.3 |
| 20260830203037 | 103 | 217 | 0.0 | 4.3 | 0.00 | 0.00 | 0.00 | 30 | 1007.3 |
| 20260830202535 | 102 | 129 | 0.9 | 6.1 | 0.00 | 0.00 | 0.00 | 31 | 1007.5 |
| 20260830202036 | 102 | 202 | 1.7 | 6.1 | 0.00 | 0.00 | 0.00 | 31 | 1007.5 |
| 20260830201538 | 102 | 302 | 1.7 | 6.1 | 0.00 | 0.00 | 0.00 | 30 | 1007.6 |
| 20260830201034 | 103 | 214 | 2.6 | 6.1 | 0.00 | 0.00 | 0.00 | 30 | 1007.7 |
| 20260830200538 | 103 | 289 | 2.6 | 6.1 | 0.00 | 0.00 | 0.00 | 30 | 1007.8 |
| 20260830200035 | 104 | 226 | 2.6 | 6.1 | 0.00 | 0.00 | 0.00 | 30 | 1007.9 |
| 20260830195535 | 104 | 231 | 1.7 | 6.1 | 0.00 | 0.00 | 0.00 | 30 | 1007.9 |
| 20260830195033 | 103 | 261 | 0.9 | 6.1 | 0.00 | 0.00 | 0.00 | 31 | 1007.8 |
| 20260830194533 | 103 | 355 | 0.0 | 6.1 | 0.00 | 0.00 | 0.00 | 31 | 1007.9 |
| 20260830194033 | 103 | 227 | 0.9 | 6.1 | 0.00 | 0.00 | 0.00 | 31 | 1008.0 |
| 20260830193531 | 103 | 183 | 2.6 | 6.1 | 0.00 | 0.00 | 0.00 | 31 | 1008.1 |
| 20260830193031 | 103 | 252 | 1.7 | 4.3 | 0.00 | 0.00 | 0.00 | 31 | 1008.1 |
| 20260830192530 | 102 | 131 | 0.9 | 7.0 | 0.00 | 0.00 | 0.00 | 31 | 1008.2 |
| 20260830192029 | 102 | 243 | 0.0 | 5.2 | 0.00 | 0.00 | 0.00 | 31 | 1008.3 |
| 20260830191528 | 102 | 121 | 0.9 | 5.2 | 0.00 | 0.00 | 0.00 | 33 | 1008.4 |
| 20260830191027 | 101 | 269 | 0.9 | 4.3 | 0.00 | 0.00 | 0.00 | 33 | 1008.4 |
| 20260830190527 | 101 | 260 | 0.9 | 3.5 | 0.00 | 0.00 | 0.00 | 32 | 1008.5 |
| 20260830190027 | 101 | 265 | 0.9 | 3.5 | 0.00 | 0.00 | 0.00 | 33 | 1008.6 |
| 20260830185525 | 101 | 226 | 0.9 | 4.3 | 0.00 | 0.00 | 0.00 | 33 | 1008.7 |
| 20260830185027 | 101 | 299 | 0.9 | 5.2 | 0.00 | 0.00 | 0.00 | 33 | 1008.7 |
| 20260830184525 | 101 | 192 | 0.9 | 5.2 | 0.00 | 0.00 | 0.00 | 33 | 1008.9 |
| 20260830184023 | 100 | 157 | 0.9 | 4.3 | 0.00 | 0.00 | 0.00 | 33 | 1008.9 |
| 20260830183522 | 100 | 169 | 1.7 | 5.2 | 0.00 | 0.00 | 0.00 | 33 | 1009.0 |
| 20260830183032 | 100 | 208 | 0.9 | 5.2 | 0.00 | 0.00 | 0.00 | 33 | 1009.1 |
| 20260830182521 | 99 | 111 | 1.7 | 5.2 | 0.00 | 0.00 | 0.00 | 34 | 1009.1 |
| 20260830182024 | 99 | 206 | 0.9 | 5.2 | 0.00 | 0.00 | 0.00 | 34 | 1009.1 |
| 20260830181521 | 99 | 260 | 3.5 | 5.2 | 0.00 | 0.00 | 0.00 | 34 | 1009.2 |
| 20260830181020 | 99 | 292 | 1.7 | 5.2 | 0.00 | 0.00 | 0.00 | 34 | 1009.3 |
| 20260830180518 | 99 | 174 | 1.7 | 5.2 | 0.00 | 0.00 | 0.00 | 33 | 1009.3 |
| 20260830180030 | 100 | 252 | 1.7 | 5.2 | 0.00 | 0.00 | 0.00 | 33 | 1009.4 |
| 20260830175516 | 99 | 201 | 0.9 | 4.3 | 0.00 | 0.00 | 0.00 | 34 | 1009.4 |
| 20260830175015 | 99 | 131 | 1.7 | 3.5 | 0.00 | 0.00 | 0.00 | 33 | 1009.5 |
| 20260830174519 | 99 | 225 | 0.0 | 3.5 | 0.00 | 0.00 | 0.00 | 33 | 1009.5 |
| 20260830174014 | 98 | 202 | 0.9 | 4.3 | 0.00 | 0.00 | 0.00 | 34 | 1009.5 |
| 20260830173512 | 98 | 210 | 1.7 | 4.3 | 0.00 | 0.00 | 0.00 | 34 | 1009.5 |
| 20260830173011 | 97 | 296 | 0.0 | 4.3 | 0.00 | 0.00 | 0.00 | 35 | 1009.6 |
| 20260830172510 | 97 | 294 | 1.7 | 4.3 | 0.00 | 0.00 | 0.00 | 34 | 1009.6 |
| 20260830172011 | 97 | 263 | 0.9 | 4.3 | 0.00 | 0.00 | 0.00 | 35 | 1009.6 |
| 20260830171514 | 96 | 95 | 0.9 | 4.3 | 0.00 | 0.00 | 0.00 | 34 | 1009.6 |
| 20260830171007 | 96 | 122 | 0.9 | 2.6 | 0.00 | 0.00 | 0.00 | 35 | 1009.7 |
| 20260830170509 | 96 | 325 | 0.0 | 2.6 | 0.00 | 0.00 | 0.00 | 35 | 1009.7 |
| 20260830170005 | 96 | 309 | 0.9 | 2.6 | 0.00 | 0.00 | 0.00 | 37 | 1009.6 |
| 20260830165504 | 96 | 355 | 0.9 | 1.7 | 0.00 | 0.00 | 0.00 | 35 | 1009.6 |
| 20260830165005 | 96 | 50 | 0.0 | 1.7 | 0.00 | 0.00 | 0.00 | 35 | 1009.7 |
| 20260830164502 | 96 | 159 | 0.0 | 2.6 | 0.00 | 0.00 | 0.00 | 35 | 1009.7 |
| 20260830164100 | 95 | 217 | 0.0 | 2.6 | 0.00 | 0.00 | 0.00 | 36 | 1009.7 |
| 20260830163559 | 95 | 250 | 0.0 | 1.7 | 0.00 | 0.00 | 0.00 | 37 | 1009.7 |
| 20260830163102 | 95 | 44 | 0.0 | 3.5 | 0.00 | 0.00 | 0.00 | 37 | 1009.7 |
| 20260830162601 | 94 | 120 | 0.0 | 3.5 | 0.00 | 0.00 | 0.00 | 37 | 1009.7 |
| 20260830162056 | 94 | 98 | 0.0 | 2.6 | 0.00 | 0.00 | 0.00 | 38 | 1009.7 |
| 20260830161553 | 94 | 33 | 1.7 | 2.6 | 0.00 | 0.00 | 0.00 | 39 | 1009.7 |
| 20260830161055 | 94 | 122 | 0.0 | 2.6 | 0.00 | 0.00 | 0.00 | 38 | 1009.7 |
| 20260830160551 | 93 | 142 | 0.0 | 2.6 | 0.00 | 0.00 | 0.00 | 38 | 1009.8 |
| 20260830160101 | 93 | 130 | 0.0 | 3.5 | 0.00 | 0.00 | 0.00 | 38 | 1009.8 |
| 20260830155548 | 93 | 71 | 0.9 | 4.3 | 0.00 | 0.00 | 0.00 | 38 | 1009.6 |
| 20260830155047 | 92 | 115 | 0.0 | 2.6 | 0.00 | 0.00 | 0.00 | 39 | 1009.7 |
| 20260830154546 | 92 | 123 | 0.0 | 2.6 | 0.00 | 0.00 | 0.00 | 40 | 1009.6 |
| 20260830154045 | 91 | 199 | 0.0 | 2.6 | 0.00 | 0.00 | 0.00 | 41 | 1009.6 |
| 20260830153543 | 91 | 323 | 0.0 | 2.6 | 0.00 | 0.00 | 0.00 | 42 | 1009.6 |
| 20260830153041 | 90 | 112 | 0.0 | 3.5 | 0.00 | 0.00 | 0.00 | 42 | 1009.6 |
| 20260830152540 | 90 | 57 | 0.0 | 3.5 | 0.00 | 0.00 | 0.00 | 44 | 1009.6 |
| 20260830152040 | 90 | 108 | 0.0 | 2.6 | 0.00 | 0.00 | 0.00 | 44 | 1009.6 |
| 20260830151544 | 89 | 192 | 0.0 | 1.7 | 0.00 | 0.00 | 0.00 | 45 | 1009.6 |
| 20260830151036 | 89 | 148 | 0.0 | 1.7 | 0.00 | 0.00 | 0.00 | 46 | 1009.6 |
| 20260830150535 | 89 | 49 | 0.0 | 1.7 | 0.00 | 0.00 | 0.00 | 48 | 1009.7 |
| 20260830150034 | 89 | 328 | 0.0 | 1.7 | 0.00 | 0.00 | 0.00 | 48 | 1009.6 |
| 20260830145532 | 88 | 28 | 0.0 | 1.7 | 0.00 | 0.00 | 0.00 | 48 | 1009.6 |
| 20260830145031 | 88 | 43 | 0.0 | 2.6 | 0.00 | 0.00 | 0.00 | 48 | 1009.7 |
| 20260830144530 | 88 | 31 | 0.0 | 3.5 | 0.00 | 0.00 | 0.00 | 48 | 1009.6 |
| 20260830144029 | 88 | 81 | 0.9 | 3.5 | 0.00 | 0.00 | 0.00 | 49 | 1009.6 |
| 20260830143528 | 87 | 65 | 0.0 | 3.5 | 0.00 | 0.00 | 0.00 | 49 | 1009.7 |
| 20260830143034 | 87 | 71 | 0.9 | 3.5 | 0.00 | 0.00 | 0.00 | 49 | 1009.6 |
| 20260830142530 | 87 | 25 | 0.0 | 4.3 | 0.00 | 0.00 | 0.00 | 50 | 1009.7 |
| 20260830142025 | 86 | 103 | 1.7 | 4.3 | 0.00 | 0.00 | 0.00 | 49 | 1009.6 |
| 20260830141532 | 86 | 90 | 0.9 | 2.6 | 0.00 | 0.00 | 0.00 | 50 | 1009.6 |
| 20260830141021 | 85 | 63 | 0.0 | 1.7 | 0.00 | 0.00 | 0.00 | 52 | 1009.5 |
| 20260830140520 | 85 | 63 | 0.0 | 1.7 | 0.00 | 0.00 | 0.00 | 51 | 1009.4 |
| 20260830140020 | 85 | 107 | 0.0 | 1.7 | 0.00 | 0.00 | 0.00 | 50 | 1009.3 |
| 20260830135520 | 85 | 107 | 0.0 | 1.7 | 0.00 | 0.00 | 0.00 | 51 | 1009.3 |
| 20260830135020 | 85 | 41 | 0.0 | 1.7 | 0.00 | 0.00 | 0.00 | 53 | 1009.2 |
| 20260830134525 | 85 | 42 | 0.9 | 1.7 | 0.00 | 0.00 | 0.00 | 50 | 1009.0 |
| 20260830134017 | 85 | 44 | 0.0 | 2.6 | 0.00 | 0.00 | 0.00 | 51 | 1009.0 |
| 20260830133517 | 85 | 53 | 0.0 | 1.7 | 0.00 | 0.00 | 0.00 | 51 | 1009.0 |
| 20260830133021 | 85 | 30 | 0.0 | 2.6 | 0.00 | 0.00 | 0.00 | 52 | 1008.8 |
| 20260830132514 | 85 | 55 | 0.0 | 1.7 | 0.00 | 0.00 | 0.00 | 51 | 1008.8 |
| 20260830132013 | 85 | 24 | 0.0 | 2.6 | 0.00 | 0.00 | 0.00 | 52 | 1008.7 |
| 20260830131513 | 85 | 5 | 0.9 | 3.5 | 0.00 | 0.00 | 0.00 | 52 | 1008.6 |
| 20260830131012 | 85 | 37 | 1.7 | 4.3 | 0.00 | 0.00 | 0.00 | 52 | 1008.5 |
| 20260830130511 | 85 | 54 | 1.7 | 4.3 | 0.00 | 0.00 | 0.00 | 51 | 1008.5 |
| 20260830130011 | 85 | 59 | 1.7 | 5.2 | 0.00 | 0.00 | 0.00 | 51 | 1008.4 |
| 20260830125509 | 85 | 46 | 2.6 | 5.2 | 0.00 | 0.00 | 0.00 | 52 | 1008.2 |
| 20260830125009 | 85 | 37 | 2.6 | 5.2 | 0.00 | 0.00 | 0.00 | 51 | 1008.2 |
| 20260830124511 | 85 | 53 | 2.6 | 4.3 | 0.00 | 0.00 | 0.00 | 51 | 1008.1 |
| 20260830124009 | 85 | 45 | 2.6 | 5.2 | 0.00 | 0.00 | 0.00 | 51 | 1008.0 |
| 20260830123511 | 85 | 36 | 3.5 | 5.2 | 0.00 | 0.00 | 0.00 | 51 | 1007.9 |
| 20260830123008 | 85 | 22 | 2.6 | 4.3 | 0.00 | 0.00 | 0.00 | 51 | 1007.9 |
| 20260830122508 | 85 | 32 | 2.6 | 4.3 | 0.00 | 0.00 | 0.00 | 51 | 1007.8 |
| 20260830122007 | 85 | 44 | 1.7 | 4.3 | 0.00 | 0.00 | 0.00 | 51 | 1007.8 |
| 20260830121519 | 85 | 37 | 1.7 | 3.5 | 0.00 | 0.00 | 0.00 | 51 | 1007.8 |
| 20260830121006 | 85 | 56 | 1.7 | 3.5 | 0.00 | 0.00 | 0.00 | 51 | 1007.8 |
| 20260830120506 | 85 | 49 | 1.7 | 3.5 | 0.00 | 0.00 | 0.00 | 51 | 1007.7 |
| 20260830120006 | 85 | 57 | 1.7 | 4.3 | 0.00 | 0.00 | 0.00 | 51 | 1007.7 |
| 20260830115505 | 85 | 56 | 0.9 | 4.3 | 0.00 | 0.00 | 0.00 | 51 | 1007.6 |
| 20260830115005 | 85 | 24 | 1.7 | 4.3 | 0.00 | 0.00 | 0.00 | 51 | 1007.6 |
| 20260830114505 | 85 | 49 | 2.6 | 4.3 | 0.00 | 0.00 | 0.00 | 51 | 1007.6 |
| 20260830114005 | 85 | 39 | 2.6 | 6.1 | 0.00 | 0.00 | 0.00 | 50 | 1007.6 |
| 20260830113505 | 86 | 45 | 2.6 | 6.1 | 0.00 | 0.00 | 0.00 | 50 | 1007.6 |
| 20260830113004 | 86 | 48 | 2.6 | 4.3 | 0.00 | 0.00 | 0.00 | 50 | 1007.5 |
| 20260830112504 | 86 | 50 | 1.7 | 2.6 | 0.00 | 0.00 | 0.00 | 49 | 1007.5 |
| 20260830112008 | 86 | 75 | 1.7 | 2.6 | 0.00 | 0.00 | 0.00 | 49 | 1007.5 |
| 20260830111504 | 86 | 67 | 0.0 | 2.6 | 0.00 | 0.00 | 0.00 | 49 | 1007.4 |
| 20260830111003 | 86 | 65 | 0.9 | 2.6 | 0.00 | 0.00 | 0.00 | 49 | 1007.4 |
| 20260830110504 | 86 | 59 | 0.0 | 4.3 | 0.00 | 0.00 | 0.00 | 49 | 1007.3 |
| 20260830110004 | 86 | 83 | 1.7 | 4.3 | 0.00 | 0.00 | 0.00 | 49 | 1007.4 |
| 20260830105503 | 86 | 46 | 1.7 | 4.3 | 0.00 | 0.00 | 0.00 | 50 | 1007.4 |
| 20260830105003 | 86 | 57 | 0.9 | 5.2 | 0.00 | 0.00 | 0.00 | 50 | 1007.5 |
| 20260830104503 | 85 | 45 | 1.7 | 6.1 | 0.00 | 0.00 | 0.00 | 51 | 1007.5 |
| 20260830104004 | 85 | 46 | 2.6 | 6.1 | 0.00 | 0.00 | 0.00 | 51 | 1007.6 |
| 20260830103505 | 85 | 34 | 3.5 | 6.1 | 0.00 | 0.00 | 0.00 | 51 | 1007.6 |
| 20260830103003 | 85 | 34 | 1.7 | 5.2 | 0.00 | 0.00 | 0.00 | 51 | 1007.6 |
| 20260830102501 | 85 | 28 | 1.7 | 5.2 | 0.00 | 0.00 | 0.00 | 51 | 1007.5 |
| 20260830102003 | 85 | 46 | 2.6 | 5.2 | 0.00 | 0.00 | 0.00 | 51 | 1007.5 |
| 20260830101501 | 85 | 53 | 1.7 | 7.0 | 0.00 | 0.00 | 0.00 | 51 | 1007.5 |
| 20260830101000 | 85 | 49 | 3.5 | 7.8 | 0.00 | 0.00 | 0.00 | 51 | 1007.4 |
| 20260830100600 | 85 | 63 | 3.5 | 7.8 | 0.00 | 0.00 | 0.00 | 51 | 1007.4 |
| 20260830100101 | 85 | 46 | 1.7 | 7.0 | 0.00 | 0.00 | 0.00 | 52 | 1007.4 |
| 20260830095603 | 85 | 57 | 3.5 | 7.8 | 0.00 | 0.07 | 0.00 | 52 | 1007.3 |
| 20260830095100 | 85 | 45 | 4.3 | 7.8 | 0.00 | 0.07 | 0.00 | 52 | 1007.3 |
| 20260830094604 | 85 | 64 | 3.5 | 9.6 | 0.00 | 0.07 | 0.00 | 53 | 1007.2 |
| 20260830094059 | 84 | 54 | 2.6 | 7.8 | 0.00 | 0.07 | 0.00 | 53 | 1007.2 |
| 20260830093559 | 85 | 350 | 2.6 | 8.7 | 0.00 | 0.07 | 0.00 | 54 | 1007.1 |
| 20260830093059 | 85 | 49 | 5.2 | 8.7 | 0.00 | 0.07 | 0.00 | 53 | 1007.1 |
| 20260830092557 | 85 | 72 | 4.3 | 8.7 | 0.00 | 0.07 | 0.00 | 53 | 1007.1 |
| 20260830092056 | 85 | 5 | 4.3 | 8.7 | 0.00 | 0.07 | 0.00 | 52 | 1007.1 |
| 20260830091555 | 86 | 34 | 4.3 | 8.7 | 0.00 | 0.07 | 0.00 | 51 | 1007.1 |
| 20260830091054 | 86 | 37 | 6.1 | 10.4 | 0.00 | 0.07 | 0.00 | 50 | 1007.2 |
| 20260830090552 | 87 | 68 | 5.2 | 9.6 | 0.00 | 0.07 | 0.00 | 48 | 1007.2 |
| 20260830090103 | 88 | 38 | 0.0 | 3.5 | 0.00 | 0.07 | 0.00 | 44 | 1007.2 |
| 20260830085552 | 88 | 88 | 0.9 | 4.3 | 0.00 | 0.07 | 0.00 | 44 | 1007.2 |
| 20260830085051 | 88 | 44 | 2.6 | 4.3 | 0.00 | 0.07 | 0.00 | 44 | 1007.3 |
| 20260830084551 | 88 | 39 | 1.7 | 5.2 | 0.00 | 0.07 | 0.00 | 44 | 1007.3 |